カタログに戻る

STARLINK-37826

運用中通信VLEO
NORAD 100050·PAYLOAD·🇺🇸 United States

打ち上げ Jul 14, 2026 から Cape Canaveral Space Force Station

Loading…

次のパス (今後24時間)

TLE

最新Source: Space-Track

元期: Sep 14, 2026, 18:58 UTC

1 A0050U 26161Y   26257.79045066  .00023078  00000-0  69155-3 0  9999
2 A0050  53.1607  24.4175 0000311 123.5703 236.5329 15.34422687  9739

AllMySatでSTARLINK-37826をリアルタイム追跡

Download on the App Store